Lid_Strength_Index
1 1 -0 0 1 0 1 2 2 2 3 3 2 3 3 3 3 3 3 3 3 3 2 3 3 3 7 11 12 7 4 4 6 6 8 10 11 12 13 13 12 13 13 13 12 12 12
0 -1 -1 -0 0 0 1 1 1 2 2 3 3 3 3 3 3 3 3 3 3 3 2 2 3 3 9 14 7 7 7 7 7 8 10 10 11 10 12 12 13 12 12 13 13 13 12
1 1 -0 -1 -0 0 0 1 1 1 2 2 3 3 4 4 3 3 3 3 3 3 2 2 3 5 10 12 8 8 7 8 8 8 10 9 10 12 11 13 11 12 15 14 14 13 14
2 1 1 1 0 -0 0 -0 1 1 2 2 2 3 3 4 4 4 4 3 3 3 3 4 3 8 13 8 9 8 8 9 8 8 8 9 9 11 12 11 13 15 15 17 15 14 14
1 2 2 2 2 1 0 -0 -0 0 1 2 3 3 3 4 4 4 5 4 4 4 4 4 10 11 14 6 10 9 8 9 9 9 9 8 10 12 13 15 17 16 19 17 15 13 14
2 2 2 2 1 2 2 0 -0 -1 -0 1 1 2 3 4 4 5 5 4 4 6 7 7 10 14 12 13 10 9 9 8 10 10 10 11 12 15 15 17 20 19 18 17 18 16 15
3 2 2 2 2 2 2 2 2 0 -0 0 1 1 1 2 2 4 6 8 11 12 11 14 14 14 12 11 10 11 10 10 10 11 15 12 15 18 16 15 16 16 18 18 17 15 16
3 3 2 2 2 2 2 2 1 2 1 0 1 1 1 1 2 3 6 9 10 11 15 12 12 13 11 11 13 12 10 13 12 15 13 14 16 15 14 14 15 16 17 18 16 16 16
3 3 3 3 3 2 2 2 2 1 2 2 2 0 1 1 2 4 7 7 7 8 15 13 12 13 12 11 13 13 11 12 14 15 14 16 15 13 14 16 16 17 18 18 18 16 16
3 3 3 3 3 3 2 2 2 2 2 2 2 1 0 1 4 4 6 5 6 8 17 15 14 13 12 12 15 11 11 13 14 15 14 15 13 14 16 16 16 18 16 16 16 18 19
3 3 3 3 3 3 3 3 2 2 2 2 2 1 1 1 4 6 5 5 5 7 22 14 14 11 12 14 14 13 11 13 16 16 16 17 15 15 16 16 16 17 15 16 17 18 18
3 3 3 3 3 4 3 3 2 2 2 2 2 2 1 3 4 4 5 5 6 15 21 17 14 14 15 14 14 14 13 12 13 16 16 17 14 14 15 15 15 15 15 16 16 18 22
3 3 3 3 3 4 3 3 3 3 2 2 2 2 1 3 6 3 5 7 15 19 14 16 16 14 14 15 15 15 16 17 18 22 22 17 17 14 14 17 15 16 18 24 22 23 21
2 3 3 3 3 4 4 4 3 3 3 2 2 1 1 2 2 4 5 12 19 18 17 13 13 14 16 15 15 15 17 19 17 18 21 21 21 16 15 16 17 18 18 21 24 22 20
3 3 3 3 4 4 4 4 4 3 3 2 2 2 2 3 2 3 7 15 16 15 12 14 14 16 16 15 15 16 17 18 16 16 18 21 20 16 16 15 16 18 20 17 21 25 22
3 3 3 3 3 4 4 4 4 4 3 2 6 3 3 2 2 4 10 13 16 11 10 12 16 15 18 16 17 17 17 15 16 15 13 17 22 19 17 16 16 18 17 20 21 24 24
2 3 3 3 3 3 4 4 4 4 3 3 5 6 2 2 2 8 13 13 11 9 9 12 15 14 14 15 15 17 16 15 14 15 13 16 17 21 19 19 19 19 20 19 18 19 21
3 3 3 3 3 3 4 4 4 3 3 5 7 11 2 1 9 11 12 11 8 9 9 11 11 12 13 14 16 16 16 15 14 13 15 15 18 22 20 19 17 19 18 18 20 22 21
2 3 3 3 3 3 3 4 4 3 3 8 9 10 3 3 12 13 11 10 8 9 11 11 12 11 12 13 16 15 14 14 13 13 14 14 19 23 21 19 19 19 18 17 17 19 22
2 2 3 3 3 3 3 4 4 3 3 6 9 13 9 7 8 10 12 11 11 7 8 8 9 10 12 13 12 15 14 13 13 14 11 12 18 20 21 19 18 21 19 17 18 22 20
1 2 2 3 3 3 3 4 3 3 3 5 8 14 13 13 11 10 11 11 11 12 9 8 10 10 11 14 14 15 12 14 13 12 14 13 19 20 18 17 18 18 19 19 20 17 19
-0 1 1 2 2 3 3 3 3 3 3 6 11 12 11 15 11 10 10 12 12 11 10 10 11 10 10 12 12 13 12 13 13 13 14 14 19 19 21 19 18 19 18 19 20 21 20
-0 -1 -0 2 2 3 3 3 3 3 4 8 7 7 11 13 13 12 12 12 11 10 10 9 9 9 11 10 8 8 7 9 10 13 15 15 17 19 20 20 18 19 20 18 18 18 17
0 -1 -1 -0 1 2 3 3 3 3 4 5 7 9 11 18 14 13 12 11 11 10 11 10 9 9 8 6 6 7 7 8 9 10 12 14 15 15 21 18 21 16 16 16 16 16 15
-0 -1 -1 -1 0 2 2 3 3 3 3 6 6 9 10 17 14 13 12 12 11 11 11 11 10 7 6 7 11 13 12 12 11 10 10 10 13 16 19 20 17 15 15 15 16 15 14
-0 0 -0 -0 -1 0 2 2 3 3 3 5 6 6 9 14 15 11 13 12 14 14 15 12 9 7 8 9 12 16 19 18 15 13 9 10 10 14 15 20 23 16 13 13 13 16 12
-0 0 -1 -0 -1 -0 1 2 2 2 3 5 7 5 8 12 12 12 14 13 11 13 15 12 10 10 9 11 18 18 20 15 16 15 15 14 13 15 16 17 17 13 12 12 17 14 11
0 0 1 -0 -0 -1 -0 1 2 2 2 5 6 5 8 11 10 10 10 12 12 12 15 14 12 11 11 13 14 16 18 17 16 15 13 14 15 16 15 17 18 12 13 14 11 11 11
0 1 -0 -1 -1 -1 -1 0 2 2 2 3 7 5 6 9 10 9 10 9 9 9 11 10 12 12 11 16 18 18 17 17 16 18 13 15 12 14 13 14 11 11 11 10 10 10 10